Location: Calvera
(42.3882°N, 0.6137°E)
Time: 03:00:17
(UTC+00:00)

Daily predictions for brighter satellites

Satellite Brightness Start Highest point End
(mag) Time Altitude Azimuth Time Altitude Azimuth Time Altitude Azimuth
Cosmos 2344 4.4 02:37:40 44° NE 02:37:40 44° NE 02:42:49 10° NE
USA 234 4.4 02:55:28 10° NE 02:59:22 34° NNE 02:59:22 34° NNE
Cosmos 1833 Rocket 3.5 03:33:51 45° SE 03:34:27 46° ESE 03:39:50 10° NE
NOSS 3-2 (C) 3.9 03:43:22 49° N 03:43:22 49° N 03:48:22 10° NNE
CENTAUR R/B 2.8 03:50:12 54° NNW 03:50:12 54° NNW 03:56:19 10° NNE
Cosmos 1656 3.7 03:55:15 69° SSE 03:55:15 69° SSE 04:00:12 10° SSE
Cosmos 2082 Rocket 3.4 03:52:14 10° S 03:57:23 40° ESE 04:02:36 10° NE
Cosmos 1461 3.8 03:57:50 52° ESE 03:57:50 52° ESE 04:02:17 10° NE
USA 290 4.5 04:06:41 25° E 04:06:41 25° E 04:09:08 10° NE
ISS -1.5 04:09:06 24° NE 04:09:06 24° NE 04:10:34 10° NE
CZ-2C R/B 2.3 04:04:10 10° NNE 04:08:51 78° NNW 04:08:51 78° NNW
Lacrosse 4 Rocket 3.3 04:18:22 19° N 04:18:22 19° N 04:19:44 10° NNE
Cosmos 1697 Rocket 2.7 04:16:50 20° NNW 04:20:50 83° ENE 04:26:30 10° SSE
COSMOS 2406 3.2 04:21:37 56° W 04:22:01 57° WNW 04:27:38 10° NNE
Meteor 1-31 Rocket 4.3 04:20:01 10° NNE 04:23:41 36° E 04:27:19 10° SSE
Lacrosse 5 rocket 2.1 04:25:45 36° NNE 04:25:45 36° NNE 04:28:18 10° NE
Meteor 2-5 Rocket 3.9 04:20:17 10° S 04:25:56 76° E 04:31:46 10° NNE
FENGYUN 3A 3.9 04:25:47 10° NNE 04:31:14 69° ESE 04:36:38 10° S
PAYLOAD A 4.3 04:30:47 10° N 04:35:37 44° WNW 04:35:51 43° WNW
ATLAS 3B R/B 2.5 04:32:59 22° SW 04:37:28 83° NW 04:44:09 10° NE
ERS-2 1.9 04:34:50 10° S 04:38:27 79° WSW 04:39:17 51° NNW
Cosmos 1726 Rocket 3.9 04:36:19 10° N 04:40:47 67° E 04:45:12 10° SSE
Cosmos 967 Rocket 4.4 04:37:13 13° NNW 04:42:53 89° SW 04:49:08 10° SSE
Cosmos 1302 Rocket 4.5 04:43:07 37° WSW 04:43:07 37° WSW 04:47:49 10° SSW
Cosmos 1980 Rocket 2.5 04:38:01 10° NNW 04:43:37 68° ENE 04:49:11 10° SSE
ATLAS CENTAUR R/B 4.4 04:41:44 10° SE 04:43:41 13° ESE 04:45:36 10° E
Abrixas rocket 2.7 04:43:59 43° NNE 04:43:59 43° NNE 04:46:36 10° E
Meteor 2-13 Rocket 4.4 04:38:05 10° S 04:44:14 86° W 04:50:25 10° N
Cosmos 1092 Rocket 4.0 04:39:04 10° S 04:45:13 85° E 04:51:29 10° N
Cosmos 2228 2.9 04:41:32 10° N 04:45:55 79° W 04:50:17 10° S
Geosat 3.9 04:41:00 10° SSE 04:46:01 80° WSW 04:51:05 10° NNW
ADEOS Rocket 3.1 04:41:24 10° SSW 04:46:30 39° W 04:51:43 10° NNW
Nadezhda 4 Rocket 4.0 04:43:32 10° SSW 04:49:29 55° W 04:55:32 10° N
Cosmos 2344 4.5 04:47:42 24° WNW 04:50:24 29° NNW 04:57:30 10° NNE
ADEOS 3.4 04:47:02 10° N 04:52:16 75° WNW 04:57:28 10° SSW
Cosmos 44 Rocket 4.3 04:53:08 29° WSW 04:53:08 29° WSW 04:57:33 10° S
CZ-3 R/B 3.8 04:35:58 18° WSW 04:53:21 43° SSW 05:00:54 10° ESE
Aureole 3 4.3 04:50:07 10° N 04:54:22 64° E 04:59:48 10° SSE
SAR-Lupe-1 4.3 04:50:58 10° SSE 04:54:30 71° ENE 04:58:04 10° N
Cosmos 1606 Rocket 3.5 04:52:11 10° NNW 04:56:38 64° W 05:01:02 10° S
Cosmos 1400 Rocket 2.7 04:53:17 10° N 04:57:15 82° E 05:01:07 10° SSE
CZ-4B R/B 3.8 04:53:43 10° NNE 04:57:55 84° WNW 05:01:53 10° SSW
Cosmos 2360 4.2 04:55:54 10° NNW 05:01:31 59° WSW 05:07:03 10° S
TELKOM 3 4.3 05:01:47 37° NW 05:02:28 43° NNW 05:06:08 10° NE
COSMO-SKYMED 1 2.8 05:00:26 10° SSE 05:04:44 71° ENE 05:09:05 10° N
CZ-4B R/B 1.8 05:04:10 10° S 05:07:28 41° W 05:10:16 13° NNW
Cosmos 1627 Rocket 4.5 05:03:26 10° S 05:09:50 79° W 05:16:15 10° N
Cosmos 1300 2.8 05:07:04 10° NNW 05:10:46 49° W 05:14:26 10° SSW
ARGOS Delta rocket 4.1 05:05:57 10° N 05:11:23 79° WNW 05:16:52 10° SSW
Cosmos 220 Rocket 4.5 05:09:17 13° NW 05:12:51 39° WSW 05:16:56 10° S
ALOS 2.5 05:09:26 10° N 05:13:54 45° WNW 05:18:20 10° SW
Cosmos 2278 3.6 05:08:27 10° NNW 05:14:05 67° WSW 05:19:39 10° SSE
Cosmos 1689 Rocket 2.0 05:11:14 10° SSE 05:14:10 85° ENE 05:17:06 10° N
Cosmos 1626 3.2 05:14:34 24° WNW 05:14:34 24° WNW 05:17:33 10° NNW
SL-14 R/B 4.0 05:11:04 10° SW 05:14:39 32° WNW 05:18:17 10° NNW
Cosmos 2322 Rocket 4.0 05:10:24 10° N 05:15:25 31° NE 05:20:23 10° ESE
Meteor 2-10 Rocket 4.1 05:10:33 10° N 05:15:31 58° ENE 05:20:32 10° SSE
Cosmos 1833 Rocket 3.6 05:15:37 18° W 05:18:34 28° NW 05:23:24 10° N
Meteor 2-8 Rocket 4.5 05:15:10 10° N 05:21:22 90° NW 05:27:31 10° S
Cosmos 1992 Rocket 4.3 05:16:31 10° NNW 05:21:25 42° WSW 05:26:17 10° S
Cosmos 2084 3.6 05:18:51 10° SW 05:23:05 56° NW 05:27:25 10° NNE
deb Chang Zheng 4 4.0 05:19:57 10° N 05:23:53 38° WNW 05:27:50 10° SW
BREEZE-M DEB (TANK) 3.5 05:25:59 14° SW 05:26:19 14° SW 05:27:41 10° S
METEOR-M 4.3 05:21:49 10° N 05:26:56 48° WNW 05:32:01 10° SW
H-2A R/B 4.0 05:24:50 10° NNE 05:28:58 41° E 05:32:56 10° S
Cosmos 1315 Rocket 3.4 05:24:57 10° N 05:29:04 64° E 05:33:09 10° SSE
Okean 1-7 Rocket 3.7 05:24:50 10° SSW 05:29:19 59° W 05:33:48 10° N
SJ-12 4.0 05:25:40 10° N 05:29:42 55° WNW 05:33:42 10° SSW
SL-27 R/B 4.3 05:27:07 10° S 05:30:25 36° ESE 05:33:46 10° NE
SL-19 R/B 4.3 05:28:33 10° N 05:31:05 30° WNW 05:33:39 10° SW
Cosmos 2058 Rocket 3.2 05:26:44 10° NNW 05:31:08 56° W 05:35:29 10° S
Cosmos 1484 Rocket 3.9 05:30:05 10° NNW 05:33:08 23° WNW 05:36:07 10° WSW
ASTRO F (AKARI) 4.3 05:30:01 10° N 05:33:30 72° WNW 05:36:48 10° SSW
H-2A R/B 3.2 05:31:59 10° NNE 05:35:48 65° ESE 05:39:37 10° S
Cosmos 1461 4.4 05:34:15 13° W 05:37:09 23° NW 05:40:55 10° N
Meteor 1-24 Rocket 4.3 05:32:32 10° SW 05:37:39 35° WNW 05:42:59 10° N
Cosmos 1892 Rocket 4.2 05:34:04 10° SW 05:37:59 32° WNW 05:41:56 10° N
Cosmos 1553 Rocket 3.9 05:32:27 10° N 05:38:36 85° W 05:44:39 10° S
USA 290 3.9 05:39:33 13° W 05:40:49 16° WNW 05:42:54 10° NNW
Cosmos 2082 Rocket 2.9 05:36:36 10° WSW 05:41:32 31° NW 05:46:32 10° N
CENTAUR R/B 4.2 05:37:24 11° WNW 05:41:48 19° NNW 05:46:55 10° NNE
Meteor PRIRODA 3.8 05:38:45 10° N 05:42:17 49° WNW 05:45:49 10° SSW
Cosmos 614 Rocket 4.0 05:38:15 10° SW 05:43:18 55° WNW 05:48:21 10° NNE
CREW DRAGON DEMO-1 DEB 3.7 05:40:35 10° NW 05:43:30 44° NNE 05:46:24 10° ESE
ISS -2.0 05:42:04 11° WNW 05:44:27 21° NNW 05:47:04 10° NE
CZ-2C R/B 4.2 05:45:12 10° NW 05:46:30 11° WNW 05:47:47 10° WNW
Cosmos 2026 Rocket 4.4 05:40:36 10° SSW 05:46:37 44° WNW 05:52:41 10° N
SL-16 R/B 2.6 05:46:08 10° NNW 05:51:49 71° ENE 05:57:28 10° SSE
SKYMED 2 4.2 05:48:57 10° SSW 05:52:53 34° W 05:56:51 10° NNW
Meteor 2-15 4.4 05:49:01 10° NNW 05:55:06 75° W 06:01:08 10° S
Meteor 1-31 Rocket 4.3 05:55:09 10° NNW 05:57:48 18° WNW 06:00:26 10° WSW
Cosmos 1455 2.2 05:55:09 10° NNW 05:59:01 71° W 06:02:52 10° S
